ORBCOMM FM117

Last updated on Sat Aug 15 2026 00:03:10 GMT+0000 (Coordinated Universal Time)

1 41188U 15081K 26226.12257207 .00000107 00000+0 58743-4 0 9999 2 41188 47.0005 266.8853 0001823 129.9347 230.1699 14.58931204568586
UTC large
Height (km)
Speed (km/s)
/
Latitude / Longitude
Inclination (degrees)
Orbital Period (minutes)
Azimuth
Elevation
Range (km)
Doppler Factor

Next 0 passes for location: London (51.5072 / 0.1276)

No passes found over London.
ORBCOMM FM117